Regional Weather Roundup
Issued by NWS

Home | Current Version | Previous Version | Text Only | Print | Product List | Glossary Off
Versions: 1 2 3 4 5 6 7 8 9 10 11 12 13 14 15 16 17 18 19 20 21 22 23 24 25 26 27 28 29 30 31 32 33 34 35 36 37 38 39 40 41 42 43 44 45 46 47 48 49 50

000
ASUS45 KSLC 291010
RWRUT

UTAH REGIONAL WEATHER ROUNDUP
NATIONAL WEATHER SERVICE SALT LAKE CITY UT
300 AM MST THU JAN 29 2015

UTZ001>011-023>025-291100-

NORTHERN UTAH

CITY           SKY/WX    TMP DP  RH WIND       PRES   REMARKS
BRIGHAM CITY   CLEAR     32  31  94 CALM      30.40S
HILL AFB       CLEAR     36  35  93 E13       30.37S WCI  28
LOGAN          CLOUDY    36  35  96 CALM      30.41R FOG
OGDEN          CLEAR     36  33  89 S7        30.37F WCI  30
PROVO AIRPORT  PTCLDY    32  28  86 CALM      30.38R
SALT LAKE CITY PTCLDY    33  31  92 SE3       30.38F
VERNAL         CLOUDY    38  28  67 CALM      30.36R
WENDOVER       CLOUDY    37  30  75 CALM      30.38S
HEBER CITY     CLEAR     27  27 100 CALM      30.39R
WEST JORDAN    CLEAR     32  32 100 W6        30.39S WCI  26

$$

UTZ012>022-026-027-291100-

SOUTHERN/CENTRAL UTAH

CITY           SKY/WX    TMP DP  RH WIND       PRES   REMARKS
BLANDING       CLOUDY    36  31  82 N3        30.37S
BRYCE CANYON   CLOUDY    30  26  85 N3        30.34S
CEDAR CITY     CLOUDY    33  30  88 SE3       30.30S
DELTA          MOCLDY    33  32  94 CALM      30.35S
HANKSVILLE     CLOUDY    30  28  93 CALM      30.35R
MILFORD        CLOUDY    32  29  88 NE3       30.32F
MOAB/CYNLANDS  CLEAR     30  27  88 CALM      30.31R
PRICE          PTCLDY    37  26  64 CALM      30.32S
ST GEORGE      MOSUNNY   45  39  81 SE6       30.25S
KANAB          CLOUDY    41  34  75 N5        30.30S

$$

REGIONAL REPORTS     COLORADO/ARIZONA

CITY           SKY/WX    TMP DP  RH WIND       PRES   REMARKS
CRAIG, CO      CLOUDY    33  30  88 CALM      30.38R
GRAND JUNCTION MOCLDY    33  28  81 E6        30.34R WCI  28
RIFLE          MOCLDY    32  26  78 CALM      30.37R
MONTROSE       CLOUDY    30  25  81 SE6       30.37R WCI  24
CORTEZ         CLEAR     31  27  85 NE3       30.32R
PAGE, AZ       NOT AVBL
GRAND CANYON   CLOUDY    41  30  65 NE8       30.27F
KINGMAN        CLOUDY    48  42  80 E6        30.18S
FLAGSTAFF      CLOUDY    37  27  67 E6        30.28F WCI  32

$$

REGIONAL REPORTS    NEVADA/IDAHO/WYOMING

CITY           SKY/WX    TMP DP  RH WIND       PRES   REMARKS
LAS VEGAS, NV  CLOUDY    56  44  64 S7        30.13F
ELY            PTCLDY    25  24  96 SE6       30.36S WCI  18
ELKO           PTCLDY    29  26  89 CALM      30.35S
POCATELLO, ID  CLOUDY    32  32 100 CALM      30.45R FOG
BURLEY         CLOUDY    36  33  89 E7        30.43R WCI  30
EVANSTON, WY   CLOUDY    31  28  89 CALM      30.40R
ROCK SPRINGS   CLOUDY    30  28  92 SW3       30.40R
KEMMERER       CLOUDY    25  23  93 N7        30.40S WCI  17

$$



USA.gov is the U.S. government's official web portal to all federal, state and local government web resources and services.